Location: Erfurt
(50.9688°N, 11.0193°E)
Time: 16:58:43
(UTC+02:00)

ELECTRON R/B - Visible Passes

Search period start: 21 May 2018 00:00
Search period end: 31 May 2018 00:00
Orbit: 285 x 480 km, 82.9° (Epoch: 20 May)

Date Brightness Start Highest point End Pass type
(mag) Time Alt. Az. Time Alt. Az. Time Alt. Az.
22 May 5.2 22:06:02 10° NNW 22:08:25 46° W 22:10:46 10° S visible
23 May 7.5 22:43:52 10° WNW 22:44:32 11° W 22:45:11 10° WSW visible
25 May 7.4 22:23:04 10° WNW 22:24:12 12° W 22:25:21 10° WSW visible
27 May 7.4 22:02:07 10° NW 22:03:35 14° W 22:05:04 10° SW visible
